Regional Weather Roundup
Issued by NWS

Home | Current Version | Previous Version | Graphics & Text | Print | Product List | Glossary On
Versions: 1 2 3 4 5 6 7 8 9 10 11 12 13 14 15 16 17 18 19 20 21 22 23 24 25 26 27 28 29 30 31 32 33 34 35 36 37 38 39 40 41 42 43 44 45 46 47 48 49 50
000
ASUS43 KMKX 290311
RWRWI

WISCONSIN REGIONAL WEATHER ROUNDUP
NATIONAL WEATHER SERVICE MILWAUKEE/SULLIVAN WI
1000 PM CDT TUE JUL 28 2015

NOTE: "FAIR" INDICATES FEW OR NO CLOUDS BELOW 12,000 FEET WITH NO
SIGNIFICANT WEATHER AND/OR OBSTRUCTIONS TO VISIBILITY.

WIZ001-002-006>008-014>016-023>028-290400-
NORTHWEST WISCONSIN

CITY           SKY/WX    TMP DP  RH WIND       PRES   REMARKS
SUPERIOR ARPT  MOCLDY    74  70  86 SW7       29.77S
ASHLAND        CLOUDY    79  71  76 S6        29.79S HX  82
HAYWARD        CLOUDY    77  70  79 S6        29.82F
SIREN          MOCLDY    73  69  87 W10       29.85R
CUMBERLAND     CLOUDY    75  70  83 SW10      29.86R
RICE LAKE      CLOUDY    77  71  82 SW7       29.87R
CHETEK         CLOUDY    76  73  92 MISG      29.86R
LADYSMITH      CLOUDY    77  73  85 S5        29.87S
EAU CLAIRE     CLOUDY    77  73  87 SW8       29.86R
MENOMONIE      CLOUDY    78  72  80 SW8       29.87R HX  81
NEW RICHMOND   MOCLDY    76  61  59 W13G23    29.89R
OSCEOLA        CLEAR     74  61  63 W12       29.91R
$$

WIZ003>005-009-010-017-018-290400-
NORTH CENTRAL WISCONSIN

CITY           SKY/WX    TMP DP  RH WIND       PRES   REMARKS
MANITOWISH WTR MOCLDY    75  70  85 S6        29.87F
ARBOR VITAE    MOCLDY    77  71  82 S9        29.88F
WOODRUFF       MOCLDY    77  71  82 S9        29.88F
RHINELANDER    CLEAR     75  68  78 S7        29.90F
EAGLE RIVER    MOCLDY    73  65  76 S5        29.89F
LAND O LAKES   CLOUDY    75  67  74 S7        29.90F
PHILLIPS       CLOUDY    75  71  86 S9        29.87S
TOMAHAWK       PTCLDY    71  68  89 CALM      29.90S
MEDFORD        CLOUDY    73  71  92 S7        29.90S
MERRILL        NOT AVBL
$$

WIZ029-030-035-036-043>047-290400-
CENTRAL WISCONSIN

CITY           SKY/WX    TMP DP  RH WIND       PRES   REMARKS
WAUSAU         MOCLDY    77  71  82 S8        29.88S
MOSINEE        CLEAR     73  72  94 S7        29.91S
MARSHFIELD     CLOUDY    75  68  78 S7        29.90R
STEVENS POINT  MOCLDY    74  68  80 S3        29.90F
WAUPACA        PTCLDY    77  73  88 CALM      29.90S
WAUTOMA        MOCLDY    77  73  87 S3        29.91S
WISC RAPIDS    CLOUDY    77  69  76 S6        29.91R
CAMP DOUGLAS   MOCLDY    75  75 100 S7        29.91R
$$

WIZ011>013-019>022-031-037>040-048>050-290400-
NORTHEAST WISCONSIN

CITY           SKY/WX    TMP DP  RH WIND       PRES   REMARKS
ANTIGO         MOCLDY    71  69  92 S5        29.92S
SHAWANO        PTCLDY    76  67  72 S3        29.89F
OCONTO         PTCLDY    75  69  83 S3        29.89S
STURGEON BAY   PTCLDY    72  63  73 S10       29.93F
GREEN BAY      PTCLDY    74  67  78 S7        29.90F
MANITOWOC      PTCLDY    72  67  84 MISG      29.92F
APPLETON       MOCLDY    75  66  73 VRB6      29.91S
CLINTONVILLE   PTCLDY    73  64  73 S5        29.89S
OSHKOSH        PTCLDY    74  69  85 S7        29.90F
$$

WIZ032>034-041-042-053>061-290400-
SOUTHWEST WISCONSIN

CITY           SKY/WX    TMP DP  RH WIND       PRES   REMARKS
LA CROSSE      CLOUDY    78  70  76 S9        29.88R HX  80
SPARTA         CLOUDY    76  70  80 S5        29.91R
VIROQUA        CLOUDY    74  73  97 S3        29.93S
BOSCOBEL       CLOUDY    75  71  87 CALM      29.91R
PRAIRIE DU CHI CLOUDY    74  70  86 CALM      29.91R
PLATTEVILLE    CLOUDY    75  74  96 CALM      29.94R
$$

WIZ056-057-062-063-064-067-068-290400-
SOUTH CENTRAL WISCONSIN

CITY           SKY/WX    TMP DP  RH WIND       PRES   REMARKS
REEDSBURG      MOCLDY    75  72  88 CALM      29.92R
BARABOO/DELLS  MOCLDY    75  69  82 W3        29.92R
LONE ROCK      CLOUDY    76  71  85 CALM      29.92R
MINERAL POINT  CLOUDY    77  73  88 CALM      29.94R
MADISON        MOCLDY    80  72  76 S6        29.90F HX  84
MIDDLETON      MOCLDY    78  71  80 SW5       29.92S HX  80
WATERTOWN      PTCLDY    75  75 100 CALM      29.91F
MONROE         CLOUDY    75  72  88 S6        29.93S
JANESVILLE     MOCLDY    77  73  88 E5        29.91S
$$

WIZ051-052-058>065-066-070>072-290400-
SOUTHEAST WISCONSIN

CITY           SKY/WX    TMP DP  RH WIND       PRES   REMARKS
MILWAUKEE      MOCLDY    76  67  73 SE3       29.93S
WAUKESHA       PTCLDY    75  68  78 S3        29.94F
MILWAUKEE/TIMM PTCLDY    79  64  61 SE5       29.94S HX  81
RACINE         PTCLDY    77  68  73 S3        29.95S
BURLINGTON     CLEAR     71  69  94 CALM      29.93F
KENOSHA        CLEAR     75  69  81 CALM      29.94S
FOND DU LAC    PTCLDY    75  71  87 S7        29.91F
SHEBOYGAN      PTCLDY    71  67  87 S5        29.93S
WEST BEND      PTCLDY    73  66  78 CALM      29.94S
JUNEAU         PTCLDY    76  72  86 S6        29.93F
$$

LSZ147-162-290400-
LAKE SUPERIOR

STATION/POSITION TIME  TEMP    WIND        PRES    WAVE
                       AIR SEA DIR/SP/G            HT/PER
                 (UTC) (F)     (DEG/KT/KT) (MB)    (FT/S)
W MID LAKE BUOY  0250   68 62  160/ 10/ 12 1007.6F   1
DEVILS ISLAND    0300   79     190/  9/ 12 1007.3R
PORT WING        0240   80     190/  9/ 11 1008.1R
SAXON HARBOR     0200   79                 1008.8R
$$

LMZ867-665-643>646-290400-
LAKE MICHIGAN

STATION/POSITION TIME  TEMP    WIND        PRES    WAVE
                       AIR SEA DIR/SP/G            HT/PER
                 (UTC) (F)     (DEG/KT/KT) (MB)    (FT/S)
CHAMBERS ISLAND  0200   76     150/  4/  9 1012.5R
S GREEN BAY BUOY 0100   79 76  160/ 14/ 16 1013.5F
N MID LAKE BUOY  0250   74 71  170/  8/ 10 1013.3R   0
NORTHPORT PIER   0200   74     160/  4/ 12 1012.9R
SISTER BAY       0214   74     170/ 10/ 14   N/A
ALGOMA LAKESHORE 0212          210/  9/ 10   N/A
KEWAUNEE LAKESHO 0200   67     180/  5/  6 1012.8R
SHEBOYGAN LAKESH 0300   72     180/  9/  9 1013.4F
PORT WASHINGTON  0200   73     130/  2/  2 1013.9R
ATWATER BUOY     0300   71     170/  6/  8 1014.8
MILWAUKEE LAKESH 0215   73     160/  7/  8   N/A
KENOSHA   LAKESH 0300   76     160/  5/  6 1012.9F
$$

TC  - TEMPERATURE IN CELSIUS
VSB - VISIBILITY IN STATUTE MILES
WCI - WIND CHILL INDEX
HX  - HEAT INDEX



USA.gov is the U.S. government's official web portal to all federal, state and local government web resources and services.